| time (UTC) | temp C | wind direction | speed KPH | gust KPH | rain 1hr cm | rain 24hr cm | rain mn cm | humidity % | barometer mb |
| 20260508153717 | 15 | 71 | 6.4 | 27.4 | 0.00 | 0.00 | 0.00 | 26 | 975.5 |
| 20260508153217 | 15 | 232 | 6.4 | 25.7 | 0.00 | 0.00 | 0.00 | 28 | 975.6 |
| 20260508152717 | 15 | 221 | 4.8 | 25.7 | 0.00 | 0.00 | 0.00 | 28 | 975.6 |
| 20260508152217 | 15 | 192 | 4.8 | 14.5 | 0.00 | 0.00 | 0.00 | 29 | 976.0 |
| 20260508151717 | 15 | 202 | 4.8 | 12.9 | 0.00 | 0.00 | 0.00 | 28 | 976.0 |
| 20260508151217 | 15 | 214 | 4.8 | 12.9 | 0.00 | 0.00 | 0.00 | 29 | 975.6 |
| 20260508150647 | 15 | 205 | 3.2 | 11.3 | 0.00 | 0.00 | 0.00 | 30 | 976.0 |
| 20260508150117 | 15 | 134 | 4.8 | 20.9 | 0.00 | 0.00 | 0.00 | 28 | 976.0 |
| 20260508145617 | 14 | 237 | 6.4 | 20.9 | 0.00 | 0.00 | 0.00 | 30 | 976.0 |
| 20260508145117 | 15 | 337 | 6.4 | 20.9 | 0.00 | 0.00 | 0.00 | 31 | 976.0 |
| 20260508144617 | 14 | 207 | 9.7 | 27.4 | 0.00 | 0.00 | 0.00 | 31 | 976.0 |
| 20260508144047 | 14 | 50 | 11.3 | 27.4 | 0.00 | 0.00 | 0.00 | 30 | 976.0 |
| 20260508143547 | 14 | 86 | 8.0 | 25.7 | 0.00 | 0.00 | 0.00 | 30 | 976.0 |
| 20260508143047 | 14 | 231 | 6.4 | 25.7 | 0.00 | 0.00 | 0.00 | 30 | 976.0 |
| 20260508142517 | 14 | 178 | 9.7 | 25.7 | 0.00 | 0.00 | 0.00 | 31 | 976.0 |
| 20260508142017 | 13 | 66 | 9.7 | 25.7 | 0.00 | 0.00 | 0.00 | 30 | 976.0 |
| 20260508141517 | 14 | 45 | 6.4 | 19.3 | 0.00 | 0.00 | 0.00 | 30 | 976.0 |
| 20260508141017 | 15 | 261 | 4.8 | 14.5 | 0.00 | 0.00 | 0.00 | 31 | 976.1 |
| 20260508140517 | 15 | 142 | 6.4 | 16.1 | 0.00 | 0.00 | 0.00 | 32 | 976.1 |
| 20260508140016 | 14 | 128 | 8.0 | 19.3 | 0.00 | 0.00 | 0.00 | 30 | 976.3 |
| 20260508135516 | 14 | 50 | 8.0 | 20.9 | 0.00 | 0.00 | 0.00 | 30 | 976.3 |
| 20260508134946 | 14 | 18 | 12.9 | 27.4 | 0.00 | 0.00 | 0.00 | 30 | 976.2 |
| 20260508134446 | 13 | 51 | 12.9 | 27.4 | 0.00 | 0.00 | 0.00 | 31 | 976.2 |
| 20260508133946 | 13 | 62 | 12.9 | 27.4 | 0.00 | 0.00 | 0.00 | 29 | 976.4 |
| 20260508133446 | 13 | 17 | 11.3 | 27.4 | 0.00 | 0.00 | 0.00 | 29 | 976.5 |
| 20260508132916 | 13 | 62 | 11.3 | 27.4 | 0.00 | 0.00 | 0.00 | 30 | 976.6 |
| 20260508132416 | 14 | 129 | 11.3 | 27.4 | 0.00 | 0.00 | 0.00 | 30 | 977.0 |
| 20260508131846 | 13 | 54 | 9.7 | 24.1 | 0.00 | 0.00 | 0.00 | 31 | 977.0 |
| 20260508131346 | 13 | 65 | 8.0 | 24.1 | 0.00 | 0.00 | 0.00 | 28 | 977.0 |
| 20260508130846 | 14 | 120 | 4.8 | 14.5 | 0.00 | 0.00 | 0.00 | 28 | 977.0 |
| 20260508130346 | 14 | 229 | 4.8 | 20.9 | 0.00 | 0.00 | 0.00 | 30 | 977.0 |
| 20260508125846 | 14 | 131 | 6.4 | 20.9 | 0.00 | 0.00 | 0.00 | 30 | 977.0 |
| 20260508125316 | 13 | 275 | 8.0 | 20.9 | 0.00 | 0.00 | 0.00 | 29 | 977.0 |
| 20260508124816 | 14 | 143 | 8.0 | 17.7 | 0.00 | 0.00 | 0.00 | 30 | 977.0 |
| 20260508124316 | 14 | 154 | 9.7 | 30.6 | 0.00 | 0.00 | 0.00 | 30 | 977.0 |
| 20260508123816 | 13 | 206 | 11.3 | 30.6 | 0.00 | 0.00 | 0.00 | 27 | 977.0 |
| 20260508123316 | 14 | 66 | 8.0 | 32.2 | 0.00 | 0.00 | 0.00 | 26 | 977.0 |
| 20260508122816 | 14 | 281 | 8.0 | 32.2 | 0.00 | 0.00 | 0.00 | 26 | 977.0 |
| 20260508122316 | 15 | 237 | 6.4 | 19.3 | 0.00 | 0.00 | 0.00 | 28 | 977.0 |
| 20260508121816 | 14 | 96 | 8.0 | 24.1 | 0.00 | 0.00 | 0.00 | 29 | 977.0 |
| 20260508121316 | 14 | 183 | 9.7 | 27.4 | 0.00 | 0.00 | 0.00 | 29 | 977.0 |
| 20260508120816 | 13 | 246 | 12.9 | 33.8 | 0.00 | 0.00 | 0.00 | 29 | 977.0 |
| 20260508120246 | 13 | 117 | 14.5 | 33.8 | 0.00 | 0.00 | 0.00 | 33 | 977.0 |
| 20260508115746 | 13 | 62 | 12.9 | 32.2 | 0.00 | 0.00 | 0.00 | 32 | 977.0 |
| 20260508115246 | 13 | 29 | 12.9 | 30.6 | 0.00 | 0.00 | 0.00 | 32 | 977.0 |
| 20260508114746 | 12 | 42 | 12.9 | 30.6 | 0.00 | 0.00 | 0.00 | 32 | 977.0 |
| 20260508114216 | 13 | 57 | 8.0 | 29.0 | 0.00 | 0.00 | 0.00 | 31 | 977.0 |
| 20260508113716 | 14 | 72 | 9.7 | 27.4 | 0.00 | 0.00 | 0.00 | 32 | 977.0 |
| 20260508113216 | 13 | 185 | 9.7 | 27.4 | 0.00 | 0.00 | 0.00 | 33 | 977.0 |
| 20260508112716 | 13 | 25 | 9.7 | 27.4 | 0.00 | 0.00 | 0.00 | 30 | 977.0 |
| 20260508112216 | 14 | 56 | 9.7 | 29.0 | 0.00 | 0.00 | 0.00 | 30 | 977.0 |
| 20260508111716 | 14 | 9 | 9.7 | 29.0 | 0.00 | 0.00 | 0.00 | 30 | 977.0 |
| 20260508111146 | 13 | 60 | 9.7 | 29.0 | 0.00 | 0.00 | 0.00 | 30 | 977.0 |
| 20260508110646 | 14 | 122 | 8.0 | 22.5 | 0.00 | 0.00 | 0.00 | 30 | 977.0 |
| 20260508110146 | 13 | 35 | 9.7 | 29.0 | 0.00 | 0.00 | 0.00 | 28 | 977.1 |
| 20260508105646 | 13 | 215 | 11.3 | 29.0 | 0.00 | 0.00 | 0.00 | 33 | 977.0 |
| 20260508105146 | 13 | 61 | 11.3 | 33.8 | 0.00 | 0.00 | 0.00 | 29 | 977.0 |
| 20260508104646 | 14 | 86 | 12.9 | 33.8 | 0.00 | 0.00 | 0.00 | 31 | 977.0 |
| 20260508104146 | 13 | 108 | 14.5 | 33.8 | 0.00 | 0.00 | 0.00 | 31 | 977.1 |
| 20260508103646 | 13 | 74 | 12.9 | 29.0 | 0.00 | 0.00 | 0.00 | 31 | 977.0 |
| 20260508103116 | 13 | 49 | 9.7 | 29.0 | 0.00 | 0.00 | 0.00 | 33 | 977.1 |
| 20260508102616 | 13 | 66 | 8.0 | 27.4 | 0.00 | 0.00 | 0.00 | 27 | 977.0 |
| 20260508102116 | 14 | 275 | 8.0 | 24.1 | 0.00 | 0.00 | 0.00 | 29 | 977.0 |
| 20260508101546 | 13 | 73 | 6.4 | 24.1 | 0.00 | 0.00 | 0.00 | 28 | 977.1 |
| 20260508101016 | 14 | 194 | 6.4 | 19.3 | 0.00 | 0.00 | 0.00 | 31 | 977.0 |
| 20260508100516 | 13 | 48 | 9.7 | 24.1 | 0.00 | 0.00 | 0.00 | 32 | 977.1 |
| 20260508100016 | 13 | 216 | 12.9 | 25.7 | 0.00 | 0.00 | 0.00 | 33 | 977.1 |
| 20260508095446 | 12 | 59 | 14.5 | 27.4 | 0.00 | 0.00 | 0.00 | 31 | 977.1 |
| 20260508094946 | 12 | 60 | 14.5 | 27.4 | 0.00 | 0.00 | 0.00 | 32 | 977.2 |
| 20260508094416 | 12 | 65 | 11.3 | 25.7 | 0.00 | 0.00 | 0.00 | 31 | 977.3 |
| 20260508093916 | 13 | 92 | 8.0 | 22.5 | 0.00 | 0.00 | 0.00 | 33 | 977.4 |
| 20260508093346 | 14 | 163 | 8.0 | 27.4 | 0.00 | 0.00 | 0.00 | 33 | 977.4 |
| 20260508092846 | 13 | 56 | 8.0 | 27.4 | 0.00 | 0.00 | 0.00 | 35 | 977.3 |
| 20260508092346 | 13 | 312 | 8.0 | 22.5 | 0.00 | 0.00 | 0.00 | 37 | 977.5 |
| 20260508091845 | 13 | 171 | 11.3 | 25.7 | 0.00 | 0.00 | 0.00 | 39 | 977.5 |
| 20260508091345 | 12 | 56 | 9.7 | 25.7 | 0.00 | 0.00 | 0.00 | 36 | 977.5 |
| 20260508090845 | 12 | 98 | 9.7 | 25.7 | 0.00 | 0.00 | 0.00 | 37 | 977.5 |
| 20260508090345 | 13 | 117 | 9.7 | 24.1 | 0.00 | 0.00 | 0.00 | 37 | 977.5 |
| 20260508085845 | 12 | 55 | 11.3 | 27.4 | 0.00 | 0.00 | 0.00 | 38 | 977.5 |
| 20260508085345 | 12 | 156 | 9.7 | 32.2 | 0.00 | 0.00 | 0.00 | 40 | 977.5 |
| 20260508084845 | 12 | 44 | 6.4 | 32.2 | 0.00 | 0.00 | 0.00 | 37 | 977.5 |
| 20260508084345 | 12 | 182 | 8.0 | 20.9 | 0.00 | 0.00 | 0.00 | 42 | 977.9 |
| 20260508083815 | 12 | 57 | 11.3 | 22.5 | 0.00 | 0.00 | 0.00 | 43 | 977.8 |
| 20260508083315 | 11 | 72 | 11.3 | 22.5 | 0.00 | 0.00 | 0.00 | 45 | 977.4 |
| 20260508082746 | 11 | 67 | 11.3 | 24.1 | 0.00 | 0.00 | 0.00 | 47 | 977.5 |
| 20260508082246 | 10 | 236 | 12.9 | 24.1 | 0.00 | 0.00 | 0.00 | 47 | 977.8 |
| 20260508081745 | 10 | 79 | 12.9 | 22.5 | 0.00 | 0.00 | 0.00 | 49 | 977.8 |
| 20260508081245 | 10 | 74 | 12.9 | 22.5 | 0.00 | 0.00 | 0.00 | 50 | 977.8 |
| 20260508080745 | 10 | 59 | 12.9 | 24.1 | 0.00 | 0.00 | 0.00 | 48 | 977.5 |
| 20260508080245 | 10 | 63 | 12.9 | 24.1 | 0.00 | 0.00 | 0.00 | 50 | 977.8 |
| 20260508075745 | 9 | 38 | 12.9 | 24.1 | 0.00 | 0.00 | 0.00 | 50 | 977.6 |
| 20260508075215 | 9 | 13 | 11.3 | 24.1 | 0.00 | 0.00 | 0.00 | 53 | 978.1 |
| 20260508074715 | 8 | 66 | 11.3 | 22.5 | 0.00 | 0.00 | 0.00 | 56 | 978.0 |
| 20260508074215 | 7 | 42 | 9.7 | 17.7 | 0.00 | 0.00 | 0.00 | 57 | 978.1 |
| 20260508073645 | 7 | 47 | 11.3 | 17.7 | 0.00 | 0.00 | 0.00 | 57 | 978.0 |
| 20260508073145 | 7 | 70 | 11.3 | 20.9 | 0.00 | 0.00 | 0.00 | 57 | 978.0 |
| 20260508072645 | 7 | 31 | 12.9 | 24.1 | 0.00 | 0.00 | 0.00 | 55 | 977.6 |
| 20260508072145 | 7 | 47 | 14.5 | 24.1 | 0.00 | 0.00 | 0.00 | 54 | 978.0 |
| 20260508071645 | 8 | 51 | 12.9 | 25.7 | 0.00 | 0.00 | 0.00 | 53 | 978.0 |
| 20260508071115 | 8 | 26 | 12.9 | 25.7 | 0.00 | 0.00 | 0.00 | 53 | 978.0 |
| 20260508070615 | 8 | 44 | 12.9 | 25.7 | 0.00 | 0.00 | 0.00 | 53 | 978.0 |
| 20260508070045 | 8 | 42 | 11.3 | 25.7 | 0.00 | 0.00 | 0.00 | 51 | 977.5 |
| 20260508065515 | 8 | 70 | 9.7 | 20.9 | 0.00 | 0.00 | 0.00 | 50 | 978.0 |
| 20260508065015 | 9 | 22 | 9.7 | 20.9 | 0.00 | 0.00 | 0.00 | 51 | 978.1 |
| 20260508064445 | 8 | 33 | 11.3 | 22.5 | 0.00 | 0.00 | 0.00 | 53 | 978.0 |
| 20260508063945 | 8 | 68 | 11.3 | 25.7 | 0.00 | 0.00 | 0.00 | 52 | 977.6 |
| 20260508063445 | 7 | 51 | 12.9 | 25.7 | 0.00 | 0.00 | 0.00 | 54 | 978.0 |
| 20260508062945 | 8 | 19 | 11.3 | 22.5 | 0.00 | 0.00 | 0.00 | 51 | 978.0 |
| 20260508062415 | 7 | 43 | 11.3 | 22.5 | 0.00 | 0.00 | 0.00 | 52 | 978.0 |
| 20260508061915 | 7 | 56 | 11.3 | 22.5 | 0.00 | 0.00 | 0.00 | 51 | 978.0 |
| 20260508061345 | 7 | 51 | 11.3 | 20.9 | 0.00 | 0.00 | 0.00 | 53 | 978.0 |
| 20260508060815 | 6 | 7 | 12.9 | 25.7 | 0.00 | 0.00 | 0.00 | 53 | 978.0 |
| 20260508060315 | 6 | 19 | 12.9 | 25.7 | 0.00 | 0.00 | 0.00 | 55 | 978.0 |
| 20260508055815 | 6 | 30 | 11.3 | 25.7 | 0.00 | 0.00 | 0.00 | 53 | 978.0 |
| 20260508055315 | 6 | 0 | 11.3 | 20.9 | 0.00 | 0.00 | 0.00 | 56 | 978.0 |
| 20260508054745 | 6 | 20 | 11.3 | 20.9 | 0.00 | 0.00 | 0.00 | 55 | 978.0 |
| 20260508054245 | 6 | 21 | 11.3 | 22.5 | 0.00 | 0.00 | 0.00 | 54 | 978.0 |
| 20260508053745 | 5 | 9 | 12.9 | 22.5 | 0.00 | 0.00 | 0.00 | 58 | 978.0 |
| 20260508053245 | 6 | 18 | 11.3 | 22.5 | 0.00 | 0.00 | 0.00 | 56 | 978.0 |
| 20260508052745 | 5 | 16 | 9.7 | 19.3 | 0.00 | 0.00 | 0.00 | 56 | 978.0 |
| 20260508052245 | 6 | 21 | 9.7 | 17.7 | 0.00 | 0.00 | 0.00 | 56 | 978.0 |
| 20260508051715 | 5 | 13 | 8.0 | 17.7 | 0.00 | 0.00 | 0.00 | 56 | 978.0 |
| 20260508051145 | 6 | 16 | 8.0 | 14.5 | 0.00 | 0.00 | 0.00 | 55 | 977.6 |
| 20260508050645 | 6 | 20 | 6.4 | 14.5 | 0.00 | 0.00 | 0.00 | 54 | 977.5 |
| 20260508050145 | 7 | 29 | 6.4 | 14.5 | 0.00 | 0.00 | 0.00 | 48 | 977.6 |
| 20260508045615 | 8 | 14 | 3.2 | 11.3 | 0.00 | 0.00 | 0.00 | 47 | 977.6 |
| 20260508045115 | 10 | 337 | 1.6 | 8.0 | 0.00 | 0.00 | 0.00 | 44 | 978.0 |
| 20260508044615 | 11 | 174 | 1.6 | 4.8 | 0.00 | 0.00 | 0.00 | 47 | 978.1 |
| 20260508044045 | 9 | 163 | 1.6 | 6.4 | 0.00 | 0.00 | 0.00 | 50 | 978.0 |
| 20260508043545 | 8 | 128 | 3.2 | 6.4 | 0.00 | 0.00 | 0.00 | 54 | 978.0 |
| 20260508043045 | 6 | 251 | 3.2 | 6.4 | 0.00 | 0.00 | 0.00 | 55 | 978.0 |
| 20260508042545 | 6 | 246 | 3.2 | 6.4 | 0.00 | 0.00 | 0.00 | 56 | 978.0 |
| 20260508042015 | 6 | 243 | 3.2 | 8.0 | 0.00 | 0.00 | 0.00 | 56 | 978.0 |
| 20260508041515 | 6 | 257 | 3.2 | 8.0 | 0.00 | 0.00 | 0.00 | 56 | 978.0 |
| 20260508040945 | 6 | 247 | 3.2 | 6.4 | 0.00 | 0.00 | 0.00 | 56 | 978.0 |
| 20260508040445 | 6 | 276 | 3.2 | 6.4 | 0.00 | 0.00 | 0.00 | 55 | 978.0 |
| 20260508035945 | 6 | 293 | 3.2 | 6.4 | 0.00 | 0.00 | 0.00 | 54 | 977.5 |
| 20260508035445 | 6 | 307 | 3.2 | 6.4 | 0.00 | 0.00 | 0.00 | 53 | 977.6 |
| 20260508034945 | 5 | 294 | 3.2 | 6.4 | 0.00 | 0.00 | 0.00 | 54 | 977.6 |
| 20260508034445 | 6 | 282 | 1.6 | 6.4 | 0.00 | 0.00 | 0.00 | 54 | 977.5 |
| 20260508033945 | 6 | 305 | 1.6 | 6.4 | 0.00 | 0.00 | 0.00 | 55 | 978.0 |
| 20260508033445 | 5 | 297 | 1.6 | 6.4 | 0.00 | 0.00 | 0.00 | 61 | 977.5 |
| 20260508032915 | 3 | 292 | 3.2 | 6.4 | 0.00 | 0.00 | 0.00 | 62 | 977.4 |
| 20260508032415 | 3 | 288 | 1.6 | 4.8 | 0.00 | 0.00 | 0.00 | 64 | 977.4 |
| 20260508031914 | 3 | 294 | 1.6 | 3.2 | 0.00 | 0.00 | 0.00 | 65 | 977.4 |
| 20260508031414 | 3 | 284 | 1.6 | 4.8 | 0.00 | 0.00 | 0.00 | 68 | 977.4 |
| 20260508030914 | 2 | 136 | 3.2 | 4.8 | 0.00 | 0.00 | 0.00 | 72 | 977.4 |
| 20260508030414 | 1 | 258 | 4.8 | 6.4 | 0.00 | 0.00 | 0.00 | 76 | 977.5 |
| 20260508025844 | 0 | 246 | 4.8 | 6.4 | 0.00 | 0.00 | 0.00 | 80 | 977.3 |
| 20260508025344 | 0 | 255 | 4.8 | 6.4 | 0.00 | 0.00 | 0.00 | 84 | 977.3 |
| 20260508024844 | 0 | 248 | 4.8 | 6.4 | 0.00 | 0.00 | 0.00 | 87 | 977.2 |
| 20260508024344 | 0 | 240 | 4.8 | 6.4 | 0.00 | 0.00 | 0.00 | 86 | 977.2 |
| 20260508023844 | -1 | 250 | 4.8 | 6.4 | 0.00 | 0.00 | 0.00 | 87 | 977.2 |
| 20260508023314 | -1 | 270 | 4.8 | 6.4 | 0.00 | 0.00 | 0.00 | 86 | 977.3 |
| 20260508022814 | -1 | 263 | 3.2 | 6.4 | 0.00 | 0.00 | 0.00 | 85 | 977.3 |
| 20260508022314 | 0 | 274 | 3.2 | 6.4 | 0.00 | 0.00 | 0.00 | 83 | 977.3 |
| 20260508021744 | 0 | 312 | 3.2 | 6.4 | 0.00 | 0.00 | 0.00 | 81 | 977.3 |
| 20260508021214 | 0 | 352 | 1.6 | 6.4 | 0.00 | 0.00 | 0.00 | 81 | 977.2 |
| 20260508020714 | 0 | 8 | 1.6 | 6.4 | 0.00 | 0.00 | 0.00 | 80 | 977.2 |
| 20260508020144 | 0 | 186 | 0.0 | 3.2 | 0.00 | 0.00 | 0.00 | 82 | 977.4 |
| 20260508015644 | 0 | 151 | 0.0 | 3.2 | 0.00 | 0.00 | 0.00 | 81 | 977.3 |
| 20260508015144 | 0 | 135 | 0.0 | 3.2 | 0.00 | 0.00 | 0.00 | 80 | 977.3 |
| 20260508014614 | 0 | 189 | 0.0 | 3.2 | 0.00 | 0.00 | 0.00 | 78 | 977.2 |
| 20260508014114 | 0 | 179 | 0.0 | 3.2 | 0.00 | 0.00 | 0.00 | 79 | 977.2 |
| 20260508013614 | 0 | 204 | 0.0 | 3.2 | 0.00 | 0.00 | 0.00 | 76 | 977.2 |
| 20260508013044 | 0 | 272 | 1.6 | 4.8 | 0.00 | 0.00 | 0.00 | 75 | 977.1 |
| 20260508012544 | 0 | 243 | 1.6 | 4.8 | 0.00 | 0.00 | 0.00 | 76 | 977.1 |
| 20260508012014 | 0 | 240 | 1.6 | 3.2 | 0.00 | 0.00 | 0.00 | 76 | 977.0 |
| 20260508011514 | 0 | 230 | 1.6 | 3.2 | 0.00 | 0.00 | 0.00 | 75 | 977.2 |
| 20260508011014 | 0 | 278 | 1.6 | 3.2 | 0.00 | 0.00 | 0.00 | 75 | 977.1 |
| 20260508010514 | 0 | 251 | 0.0 | 1.6 | 0.00 | 0.00 | 0.00 | 74 | 977.1 |
| 20260508010014 | 0 | 267 | 0.0 | 1.6 | 0.00 | 0.00 | 0.00 | 73 | 977.2 |
| 20260508005514 | 1 | 26 | 0.0 | 3.2 | 0.00 | 0.00 | 0.00 | 73 | 977.1 |
| 20260508005014 | 1 | 276 | 1.6 | 4.8 | 0.00 | 0.00 | 0.00 | 71 | 977.2 |
| 20260508004514 | 1 | 345 | 1.6 | 4.8 | 0.00 | 0.00 | 0.00 | 71 | 977.1 |
| 20260508004014 | 1 | 46 | 1.6 | 6.4 | 0.00 | 0.00 | 0.00 | 71 | 977.1 |
| 20260508003514 | 1 | 66 | 1.6 | 6.4 | 0.00 | 0.00 | 0.00 | 72 | 977.0 |
| 20260508003014 | 0 | 38 | 0.0 | 3.2 | 0.00 | 0.00 | 0.00 | 73 | 977.0 |
| 20260508002514 | 0 | 259 | 0.0 | 1.6 | 0.00 | 0.00 | 0.00 | 73 | 977.0 |
| 20260508002013 | 0 | 270 | 1.6 | 3.2 | 0.00 | 0.00 | 0.00 | 73 | 977.0 |
| 20260508001443 | 0 | 274 | 1.6 | 3.2 | 0.00 | 0.00 | 0.00 | 72 | 977.0 |
| 20260508000943 | 1 | 331 | 1.6 | 3.2 | 0.00 | 0.00 | 0.00 | 71 | 977.0 |
| 20260508000414 | 1 | 283 | 1.6 | 1.6 | 0.00 | 0.00 | 0.00 | 71 | 977.0 |
| 20260507235913 | 1 | 235 | 0.0 | 1.6 | 0.00 | 0.00 | 0.00 | 71 | 977.0 |
| 20260507235413 | 1 | 252 | 0.0 | 3.2 | 0.00 | 0.00 | 0.00 | 71 | 977.0 |
| 20260507234913 | 1 | 267 | 1.6 | 3.2 | 0.00 | 0.00 | 0.00 | 70 | 977.0 |
| 20260507234343 | 1 | 210 | 1.6 | 1.6 | 0.00 | 0.00 | 0.00 | 71 | 977.0 |
| 20260507233843 | 1 | 237 | 1.6 | 3.2 | 0.00 | 0.00 | 0.00 | 71 | 977.0 |
| 20260507233313 | 1 | 283 | 1.6 | 3.2 | 0.00 | 0.00 | 0.00 | 71 | 976.6 |
| 20260507232813 | 1 | 262 | 3.2 | 3.2 | 0.00 | 0.00 | 0.00 | 71 | 976.5 |
| 20260507232313 | 1 | 268 | 3.2 | 3.2 | 0.00 | 0.00 | 0.00 | 71 | 976.4 |
| 20260507231743 | 1 | 258 | 1.6 | 3.2 | 0.00 | 0.00 | 0.00 | 71 | 976.3 |
| 20260507231243 | 1 | 280 | 1.6 | 3.2 | 0.00 | 0.00 | 0.00 | 71 | 976.4 |
| 20260507230743 | 1 | 263 | 1.6 | 3.2 | 0.00 | 0.00 | 0.00 | 70 | 976.3 |
| 20260507230243 | 1 | 273 | 1.6 | 3.2 | 0.00 | 0.00 | 0.00 | 70 | 976.3 |
| 20260507225743 | 1 | 261 | 3.2 | 3.2 | 0.00 | 0.00 | 0.00 | 70 | 976.3 |
| 20260507225243 | 1 | 272 | 3.2 | 4.8 | 0.00 | 0.00 | 0.00 | 70 | 976.3 |
| 20260507224743 | 1 | 275 | 3.2 | 4.8 | 0.00 | 0.00 | 0.00 | 70 | 976.2 |
| 20260507224243 | 1 | 272 | 3.2 | 4.8 | 0.00 | 0.00 | 0.00 | 70 | 976.2 |
| 20260507223743 | 1 | 274 | 3.2 | 3.2 | 0.00 | 0.00 | 0.00 | 69 | 976.2 |
| 20260507223243 | 1 | 279 | 3.2 | 3.2 | 0.00 | 0.00 | 0.00 | 69 | 976.2 |
| 20260507222743 | 1 | 276 | 3.2 | 3.2 | 0.00 | 0.00 | 0.00 | 68 | 976.1 |
| 20260507222243 | 1 | 260 | 3.2 | 4.8 | 0.00 | 0.00 | 0.00 | 68 | 976.2 |
| 20260507221743 | 1 | 262 | 4.8 | 8.0 | 0.00 | 0.00 | 0.00 | 68 | 976.1 |
| 20260507221213 | 2 | 272 | 4.8 | 8.0 | 0.00 | 0.00 | 0.00 | 66 | 976.1 |
| 20260507220643 | 2 | 276 | 4.8 | 6.4 | 0.00 | 0.00 | 0.00 | 66 | 976.2 |
| 20260507220143 | 2 | 270 | 3.2 | 6.4 | 0.00 | 0.00 | 0.00 | 66 | 976.0 |
| 20260507215643 | 2 | 294 | 1.6 | 6.4 | 0.00 | 0.00 | 0.00 | 67 | 976.1 |
| 20260507215143 | 2 | 259 | 0.0 | 3.2 | 0.00 | 0.00 | 0.00 | 67 | 976.0 |
| 20260507214643 | 2 | 240 | 0.0 | 3.2 | 0.00 | 0.00 | 0.00 | 66 | 976.0 |
| 20260507214143 | 2 | 114 | 1.6 | 3.2 | 0.00 | 0.00 | 0.00 | 64 | 976.0 |
| 20260507213643 | 2 | 27 | 3.2 | 8.0 | 0.00 | 0.00 | 0.00 | 65 | 976.1 |
| 20260507213143 | 2 | 305 | 4.8 | 9.7 | 0.00 | 0.00 | 0.00 | 64 | 976.0 |
| 20260507212613 | 3 | 262 | 6.4 | 12.9 | 0.00 | 0.00 | 0.00 | 64 | 976.0 |
| 20260507212043 | 3 | 248 | 6.4 | 12.9 | 0.00 | 0.00 | 0.00 | 64 | 976.0 |
| 20260507211513 | 3 | 271 | 6.4 | 12.9 | 0.00 | 0.00 | 0.00 | 64 | 976.0 |
| 20260507211013 | 3 | 253 | 6.4 | 12.9 | 0.00 | 0.00 | 0.00 | 64 | 976.0 |
| 20260507210513 | 3 | 246 | 6.4 | 11.3 | 0.00 | 0.00 | 0.00 | 64 | 975.6 |
| 20260507210013 | 3 | 257 | 6.4 | 12.9 | 0.00 | 0.00 | 0.00 | 63 | 975.6 |
| 20260507205513 | 3 | 237 | 6.4 | 12.9 | 0.00 | 0.00 | 0.00 | 63 | 975.4 |
| 20260507205013 | 3 | 261 | 6.4 | 12.9 | 0.00 | 0.00 | 0.00 | 62 | 975.5 |
| 20260507204513 | 3 | 234 | 6.4 | 14.5 | 0.00 | 0.00 | 0.00 | 62 | 975.4 |
| 20260507204012 | 3 | 236 | 6.4 | 14.5 | 0.00 | 0.00 | 0.00 | 61 | 975.4 |
| 20260507203512 | 3 | 232 | 6.4 | 12.9 | 0.00 | 0.00 | 0.00 | 60 | 975.2 |
| 20260507203012 | 3 | 245 | 6.4 | 16.1 | 0.00 | 0.00 | 0.00 | 60 | 975.1 |
| 20260507202512 | 3 | 263 | 6.4 | 16.1 | 0.00 | 0.00 | 0.00 | 59 | 975.0 |
| 20260507202012 | 4 | 245 | 4.8 | 12.9 | 0.00 | 0.00 | 0.00 | 58 | 975.1 |
| 20260507201512 | 4 | 202 | 4.8 | 12.9 | 0.00 | 0.00 | 0.00 | 58 | 975.1 |
| 20260507201012 | 4 | 197 | 4.8 | 12.9 | 0.00 | 0.00 | 0.00 | 58 | 975.0 |
| 20260507200512 | 4 | 232 | 4.8 | 11.3 | 0.00 | 0.00 | 0.00 | 58 | 975.0 |
| 20260507200012 | 4 | 226 | 4.8 | 11.3 | 0.00 | 0.00 | 0.00 | 57 | 975.0 |
| 20260507195512 | 4 | 260 | 4.8 | 11.3 | 0.00 | 0.00 | 0.00 | 56 | 975.0 |
| 20260507195012 | 5 | 254 | 4.8 | 11.3 | 0.00 | 0.00 | 0.00 | 55 | 975.0 |
| 20260507194442 | 5 | 240 | 4.8 | 9.7 | 0.00 | 0.00 | 0.00 | 54 | 975.0 |
| 20260507193912 | 5 | 242 | 3.2 | 8.0 | 0.00 | 0.00 | 0.00 | 53 | 975.0 |
| 20260507193412 | 5 | 220 | 3.2 | 11.3 | 0.00 | 0.00 | 0.00 | 53 | 975.0 |
| 20260507192912 | 5 | 210 | 4.8 | 12.9 | 0.00 | 0.00 | 0.00 | 53 | 975.0 |
| 20260507192342 | 6 | 194 | 4.8 | 12.9 | 0.00 | 0.00 | 0.00 | 52 | 974.6 |
| 20260507191842 | 6 | 173 | 6.4 | 14.5 | 0.00 | 0.00 | 0.00 | 50 | 974.6 |
| 20260507191342 | 6 | 182 | 6.4 | 16.1 | 0.00 | 0.00 | 0.00 | 48 | 974.5 |
| 20260507190842 | 6 | 152 | 6.4 | 16.1 | 0.00 | 0.00 | 0.00 | 47 | 974.3 |
| 20260507190342 | 7 | 136 | 6.4 | 17.7 | 0.00 | 0.00 | 0.00 | 45 | 974.3 |
| 20260507185842 | 7 | 187 | 4.8 | 17.7 | 0.00 | 0.00 | 0.00 | 43 | 974.3 |
| 20260507185312 | 7 | 120 | 3.2 | 17.7 | 0.00 | 0.00 | 0.00 | 42 | 974.2 |
| 20260507184812 | 7 | 98 | 3.2 | 12.9 | 0.00 | 0.00 | 0.00 | 41 | 974.2 |
| 20260507184312 | 7 | 191 | 3.2 | 12.9 | 0.00 | 0.00 | 0.00 | 41 | 974.2 |
| 20260507183812 | 7 | 99 | 3.2 | 12.9 | 0.00 | 0.00 | 0.00 | 43 | 974.0 |
| 20260507183312 | 6 | 97 | 3.2 | 16.1 | 0.00 | 0.00 | 0.00 | 45 | 974.0 |
| 20260507182812 | 6 | 155 | 3.2 | 16.1 | 0.00 | 0.00 | 0.00 | 44 | 974.0 |
| 20260507182312 | 7 | 145 | 4.8 | 16.1 | 0.00 | 0.00 | 0.00 | 43 | 974.0 |
| 20260507181812 | 7 | 122 | 4.8 | 20.9 | 0.00 | 0.00 | 0.00 | 43 | 974.0 |
| 20260507181312 | 7 | 90 | 6.4 | 20.9 | 0.00 | 0.00 | 0.00 | 43 | 973.6 |
| 20260507180812 | 7 | 136 | 6.4 | 17.7 | 0.00 | 0.00 | 0.00 | 40 | 974.0 |
| 20260507180312 | 7 | 187 | 6.4 | 17.7 | 0.00 | 0.00 | 0.00 | 38 | 973.6 |
| 20260507175812 | 7 | 175 | 4.8 | 17.7 | 0.00 | 0.00 | 0.00 | 38 | 973.5 |
| 20260507175242 | 7 | 127 | 4.8 | 17.7 | 0.00 | 0.00 | 0.00 | 37 | 973.5 |
| 20260507174742 | 7 | 184 | 4.8 | 17.7 | 0.00 | 0.00 | 0.00 | 38 | 973.4 |
| 20260507174242 | 7 | 152 | 4.8 | 17.7 | 0.00 | 0.00 | 0.00 | 37 | 973.4 |
| 20260507173712 | 8 | 161 | 4.8 | 12.9 | 0.00 | 0.00 | 0.00 | 40 | 973.4 |
| 20260507173212 | 8 | 124 | 1.6 | 12.9 | 0.00 | 0.00 | 0.00 | 39 | 973.4 |
| 20260507172712 | 8 | 336 | 1.6 | 14.5 | 0.00 | 0.00 | 0.00 | 39 | 973.3 |
| 20260507172212 | 8 | 189 | 3.2 | 14.5 | 0.00 | 0.00 | 0.00 | 37 | 973.2 |
| 20260507171712 | 7 | 40 | 3.2 | 14.5 | 0.00 | 0.00 | 0.00 | 38 | 973.2 |
| 20260507171212 | 7 | 98 | 3.2 | 14.5 | 0.00 | 0.00 | 0.00 | 38 | 973.2 |
| 20260507170711 | 7 | 151 | 3.2 | 14.5 | 0.00 | 0.00 | 0.00 | 39 | 973.0 |
| 20260507170211 | 7 | 133 | 4.8 | 14.5 | 0.00 | 0.00 | 0.00 | 41 | 973.0 |
| 20260507165711 | 7 | 131 | 4.8 | 14.5 | 0.00 | 0.00 | 0.00 | 38 | 973.0 |
| 20260507165211 | 8 | 73 | 4.8 | 12.9 | 0.00 | 0.00 | 0.00 | 41 | 973.0 |
| 20260507164711 | 7 | 246 | 4.8 | 16.1 | 0.00 | 0.00 | 0.00 | 39 | 973.0 |
| 20260507164211 | 8 | 135 | 6.4 | 16.1 | 0.00 | 0.00 | 0.00 | 40 | 973.0 |
| 20260507163711 | 7 | 197 | 8.0 | 20.9 | 0.00 | 0.00 | 0.00 | 41 | 973.0 |
| 20260507163211 | 7 | 184 | 9.7 | 20.9 | 0.00 | 0.00 | 0.00 | 40 | 973.0 |
| 20260507162711 | 7 | 173 | 8.0 | 20.9 | 0.00 | 0.00 | 0.00 | 39 | 973.0 |
| 20260507162211 | 8 | 187 | 6.4 | 20.9 | 0.00 | 0.00 | 0.00 | 40 | 973.0 |
| 20260507161711 | 8 | 162 | 6.4 | 19.3 | 0.00 | 0.00 | 0.00 | 41 | 973.0 |
| 20260507161211 | 8 | 187 | 6.4 | 19.3 | 0.00 | 0.00 | 0.00 | 39 | 973.0 |
| 20260507160711 | 8 | 236 | 4.8 | 14.5 | 0.00 | 0.00 | 0.00 | 38 | 973.0 |
| 20260507160141 | 8 | 208 | 4.8 | 9.7 | 0.00 | 0.00 | 0.00 | 39 | 973.0 |
| 20260507155641 | 8 | 197 | 3.2 | 14.5 | 0.00 | 0.00 | 0.00 | 39 | 973.0 |
| 20260507155111 | 8 | 66 | 6.4 | 16.1 | 0.00 | 0.00 | 0.00 | 40 | 973.0 |
| 20260507154541 | 8 | 150 | 8.0 | 29.0 | 0.00 | 0.00 | 0.00 | 40 | 973.0 |
| 20260507154041 | 8 | 183 | 9.7 | 29.0 | 0.00 | 0.00 | 0.00 | 41 | 972.6 |